Regional Weather Roundup
Issued by NWS

Home | Current Version | Previous Version | Graphics & Text | Print | Product List | Glossary On
Versions: 1 2 3 4 5 6 7 8 9 10 11 12 13 14 15 16 17 18 19 20 21 22 23 24 25 26 27 28 29 30 31 32 33 34 35 36 37 38 39 40 41 42 43 44 45 46 47 48 49 50
000
ASUS43 KMKX 240000
RWRWI

WISCONSIN REGIONAL WEATHER ROUNDUP
NATIONAL WEATHER SERVICE MILWAUKEE/SULLIVAN WI
700 PM CDT TUE SEP 23 2014

NOTE: "FAIR" INDICATES FEW OR NO CLOUDS BELOW 12,000 FEET WITH NO
SIGNIFICANT WEATHER AND/OR OBSTRUCTIONS TO VISIBILITY.

WIZ001-002-006>008-014>016-023>028-240100-
NORTHWEST WISCONSIN

CITY           SKY/WX    TMP DP  RH WIND       PRES   REMARKS
SUPERIOR ARPT  MOCLDY    67  55  66 S5        30.14S
ASHLAND        CLEAR     61  52  72 S5        30.18R
6HR MIN TEMP:  61; 6HR MAX TEMP:  76;

HAYWARD        MOCLDY    65  52  62 SE6       30.19S
6HR MIN TEMP:  65; 6HR MAX TEMP:  73;

SIREN          MOCLDY    68  52  55 SE7       30.17S
CUMBERLAND     MOCLDY    64  50  59 S7        30.19S
RICE LAKE      MOCLDY    66  51  58 SE7       30.20S
CHETEK         MOCLDY    66  54  65 SE6       30.19F
LADYSMITH      MOCLDY    67  51  56 SE3       30.22S
EAU CLAIRE     MOCLDY    67  52  58 SE7       30.19F
6HR MIN TEMP:  67; 6HR MAX TEMP:  74;

MENOMONIE      MOCLDY    65  51  60 SE6       30.19S
6HR MIN TEMP:  65; 6HR MAX TEMP:  74;

NEW RICHMOND   PTCLDY    66  50  55 SE6       30.17S
OSCEOLA        PTCLDY    67  52  59 SE6       30.18F
$$

WIZ003>005-009-010-017-018-240100-
NORTH CENTRAL WISCONSIN

CITY           SKY/WX    TMP DP  RH WIND       PRES   REMARKS
MANITOWISH WTR CLEAR     63  51  64 S5        30.22S
ARBOR VITAE    CLEAR     65  51  62 CALM      30.23S
WOODRUFF       CLEAR     65  51  62 CALM      30.23S
RHINELANDER    CLEAR     62  52  69 CALM      30.24F
6HR MIN TEMP:  62; 6HR MAX TEMP:  73;

EAGLE RIVER    CLEAR     66  48  52 CALM      30.23S
LAND O LAKES   CLEAR     61  53  74 CALM      30.24S
PHILLIPS       MOCLDY    63  52  67 S5        30.21S
6HR MIN TEMP:  63; 6HR MAX TEMP:  72;

TOMAHAWK       CLEAR     61  51  70 CALM      30.24S
MEDFORD        PTCLDY    62  53  73 S3        30.23S
MERRILL        CLEAR     64  54  69 S3        30.23F
$$

WIZ029-030-035-036-043>047-240100-
CENTRAL WISCONSIN

CITY           SKY/WX    TMP DP  RH WIND       PRES   REMARKS
WAUSAU         CLEAR     65  53  65 S5        30.22S
6HR MIN TEMP:  64; 6HR MAX TEMP:  73;

MOSINEE        CLEAR     63  54  72 S3        30.25S
MARSHFIELD     PTCLDY    63  53  70 SE6       30.23S
6HR MIN TEMP:  63; 6HR MAX TEMP:  74;

STEVENS POINT  CLEAR     65  51  60 S3        30.25S
WAUPACA        CLEAR     67  54  61 CALM      30.24S
WAUTOMA        NOT AVBL
WISC RAPIDS    PTCLDY    62  54  74 S3        30.24F
6HR MIN TEMP:  62; 6HR MAX TEMP:  74;

CAMP DOUGLAS   NOT AVBL
$$

WIZ011>013-019>022-031-037>040-048>050-240100-
NORTHEAST WISCONSIN

CITY           SKY/WX    TMP DP  RH WIND       PRES   REMARKS
ANTIGO         CLEAR     62  52  68 S3        30.25S
SHAWANO        CLEAR     66  55  66 CALM      30.24S
6HR MIN TEMP:  66; 6HR MAX TEMP:  76;

OCONTO         CLEAR     64  56  74 CALM      30.24S
STURGEON BAY   CLEAR     59  50  72 S8        30.27S
6HR MIN TEMP:  59; 6HR MAX TEMP:  72;

GREEN BAY      CLEAR     63  55  75 S5        30.25R
6HR MIN TEMP:  63; 6HR MAX TEMP:  74;

MANITOWOC      NOT AVBL
APPLETON       PTCLDY    66  52  59 VRB5      30.26S
CLINTONVILLE   CLEAR     63  54  72 CALM      30.24S
OSHKOSH        CLEAR     64  54  69 S3        30.24S
6HR MIN TEMP:  63; 6HR MAX TEMP:  74;

$$

WIZ032>034-041-042-053>061-240100-
SOUTHWEST WISCONSIN

CITY           SKY/WX    TMP DP  RH WIND       PRES   REMARKS
LA CROSSE      PTCLDY    69  51  52 SE6       30.20S
6HR MIN TEMP:  69; 6HR MAX TEMP:  77;

SPARTA         MOCLDY    66  52  59 SE3       30.23S
VIROQUA        PTCLDY    64  48  56 SE5       30.23F
BOSCOBEL       PTCLDY    64  52  64 SE3       30.23S
6HR MIN TEMP:  64; 6HR MAX TEMP:  76;

PRAIRIE DU CHI PTCLDY    67  48  49 SE3       30.21F
PLATTEVILLE    PTCLDY    66  50  55 SE3       30.25S
$$

WIZ056-057-062-063-064-067-068-240100-
SOUTH CENTRAL WISCONSIN

CITY           SKY/WX    TMP DP  RH WIND       PRES   REMARKS
REEDSBURG      MOCLDY    66  54  64 CALM      30.24S
BARABOO/DELLS  MOCLDY    66  50  56 CALM      30.24F
LONE ROCK      NOT AVBL
MINERAL POINT  PTCLDY    64  48  55 S5        30.25S
MADISON        PTCLDY    62  53  72 CALM      30.25S
6HR MIN TEMP:  62; 6HR MAX TEMP:  74;

MIDDLETON      PTCLDY    70  46  42 S3        30.25F
WATERTOWN      CLEAR     63  53  70 CALM      30.26S
MONROE         MOCLDY    64  52  63 SE5       30.25F
JANESVILLE     CLEAR     68  50  52 S6        30.25F
$$

WIZ051-052-058>065-066-070>072-240100-
SOUTHEAST WISCONSIN

CITY           SKY/WX    TMP DP  RH WIND       PRES   REMARKS
MILWAUKEE      PTCLDY    62  50  64 SE6       30.27S
6HR MIN TEMP:  61; 6HR MAX TEMP:  73;

WAUKESHA       NOT AVBL
MILWAUKEE/TIMM NOT AVBL
RACINE         CLEAR     62  47  57 S6        30.29S
6HR MIN TEMP:  62; 6HR MAX TEMP:  74;

BURLINGTON     CLEAR     60  52  74 SE5       30.27S
KENOSHA        CLEAR     62  50  64 SE6       30.28S
6HR MIN TEMP:  62; 6HR MAX TEMP:  73;

FOND DU LAC    CLEAR     61  54  77 S5        30.25S
6HR MIN TEMP:  61; 6HR MAX TEMP:  74;

SHEBOYGAN      CLEAR     62  52  69 S6        30.27R
6HR MIN TEMP:  61; 6HR MAX TEMP:  75;

WEST BEND      CLEAR     63  48  59 SE3       30.27R
JUNEAU         CLEAR     66  50  55 S6        30.27S
$$

LSZ147-162-240100-
LAKE SUPERIOR

STATION/POSITION TIME  TEMP    WIND        PRES    WAVE
                       AIR SEA DIR/SP/G            HT/PER
                 (UTC) (F)     (DEG/KT/KT) (MB)    (FT/S)
W MID LAKE BUOY  2250   52 51  110/  6/  8 1022.1R   1
DEVILS ISLAND    2300   61      70/  6/  7 1021.5F
PORT WING        2300   64      CALM  /  2 1021.0S
SAXON HARBOR     2300   66        CALM     1021.7S
$$

LMZ867-665-643>646-240100-
LAKE MICHIGAN

STATION/POSITION TIME  TEMP    WIND        PRES    WAVE
                       AIR SEA DIR/SP/G            HT/PER
                 (UTC) (F)     (DEG/KT/KT) (MB)    (FT/S)
CHAMBERS ISLAND  2300   67     160/  3/  5 1024.0R
S GREEN BAY BUOY 2300   65                 1025.0R
N MID LAKE BUOY  2250   59 58  200/ 12/ 14 1024.8R   1/ 3
NORTHPORT PIER   2300   63     170/  6/ 10 1024.0S
SISTER BAY       2257          150/  7/ 10   N/A
KEWAUNEE LAKESHO 2300   57     180/  9/ 11 1023.7S
SHEBOYGAN LAKESH 2300   63 53  190/ 13/ 13 1025.1R
PORT WASHINGTON  2300   61     200/  3/  6 1025.4
ATWATER BUOY     2300   61     160/ 10/ 12 1025.9R
S MID LAKE BUOY  2250   63 62  160/  8/  8 1025.8F   1
KENOSHA   LAKESH 2300   63     180/ 12/ 15 1024.7S
$$

TC  - TEMPERATURE IN CELSIUS
VSB - VISIBILITY IN STATUTE MILES
WCI - WIND CHILL INDEX
HX  - HEAT INDEX



USA.gov is the U.S. government's official web portal to all federal, state and local government web resources and services.